GW2683 Weather Reports


time (UTC)temp
C
wind
direction
speed
KPH
gust
KPH
rain 1hr
cm
rain 24hr
cm
rain mn
cm
humidity
%
barometer
mb
20260504110303 0 314 0.0 1.6 0.00 0.00 0.00 86 1013.0
20260504100303 0 314 0.0 1.6 0.00 0.00 0.00 85 1012.7
20260504081803 0 299 0.0 0.0 0.00 0.00 0.00 83 1012.9
20260504080803 0 299 0.0 3.2 0.00 0.00 0.00 83 1013.0
20260504080303 0 299 0.0 3.2 0.00 0.00 0.00 82 1012.9
20260504070303 1 302 0.0 0.0 0.00 0.00 0.00 81 1012.9
20260504045803 2 302 0.0 0.0 0.00 0.00 0.00 77 1012.7
20260504045304 2 302 0.0 0.0 0.00 0.00 0.00 76 1012.7
20260504044803 2 302 0.0 0.0 0.00 0.00 0.00 76 1012.7
20260504044303 2 302 0.0 3.2 0.00 0.00 0.00 75 1012.7
20260504043804 2 302 0.0 3.2 0.00 0.00 0.00 75 1012.7
20260504042803 2 302 0.0 0.0 0.00 0.00 0.00 74 1012.6
20260504042304 2 302 0.0 0.0 0.00 0.00 0.00 74 1012.5
20260504041803 2 302 0.0 3.2 0.00 0.00 0.00 75 1012.5
20260504040303 2 302 0.0 0.0 0.00 0.00 0.00 73 1012.4
20260504035804 3 302 0.0 0.0 0.00 0.00 0.00 73 1012.4
20260504035304 3 302 0.0 3.2 0.00 0.00 0.00 73 1012.3
20260504034303 3 302 0.0 1.6 0.00 0.00 0.00 74 1012.3
20260504033803 3 292 0.0 0.0 0.00 0.00 0.00 72 1012.3
20260504033303 3 292 0.0 0.0 0.00 0.00 0.00 72 1012.3
20260504032803 3 292 0.0 0.0 0.00 0.00 0.00 72 1012.3
20260504032304 3 292 0.0 0.0 0.00 0.00 0.00 72 1012.3
20260504031803 3 292 0.0 0.0 0.00 0.00 0.00 71 1012.2
20260504031303 3 292 0.0 0.0 0.00 0.00 0.00 71 1012.3
20260504030803 3 292 0.0 0.0 0.00 0.00 0.00 71 1012.4
20260504030303 3 292 0.0 0.0 0.00 0.00 0.00 70 1012.3
20260504025804 3 292 0.0 0.0 0.00 0.00 0.00 70 1012.3
20260504024303 4 292 0.0 0.0 0.00 0.00 0.00 67 1012.3
20260504023803 4 292 0.0 0.0 0.00 0.00 0.00 68 1012.3
20260504023303 4 292 0.0 0.0 0.00 0.00 0.00 67 1012.4
20260504022803 5 279 0.0 0.0 0.00 0.00 0.00 67 1012.3
20260504022304 5 279 0.0 0.0 0.00 0.00 0.00 67 1012.4
20260504021804 5 279 0.0 0.0 0.00 0.00 0.00 67 1012.3
20260504021303 5 279 0.0 0.0 0.00 0.00 0.00 66 1012.3
20260504020804 5 273 0.0 0.0 0.00 0.00 0.00 66 1012.3
20260504020303 5 251 0.0 0.0 0.00 0.00 0.00 65 1012.4
20260504015803 5 243 0.0 0.0 0.00 0.00 0.00 64 1012.3
20260504014803 6 233 0.0 0.0 0.00 0.00 0.00 64 1012.2
20260504014303 6 218 0.0 0.0 0.00 0.00 0.00 64 1012.1
20260504013803 6 212 0.0 0.0 0.00 0.00 0.00 63 1012.0
20260504013303 6 212 0.0 0.0 0.00 0.00 0.00 63 1011.8
20260504012304 7 196 0.0 0.0 0.00 0.00 0.00 62 1011.7
20260504011803 7 196 0.0 0.0 0.00 0.00 0.00 62 1011.6
20260504011303 7 196 0.0 0.0 0.00 0.00 0.00 61 1011.5
20260504010803 8 196 0.0 0.0 0.00 0.00 0.00 59 1011.5
20260504010303 8 196 0.0 0.0 0.00 0.00 0.00 58 1011.5
20260504005803 8 196 0.0 3.2 0.00 0.00 0.00 58 1011.5
20260504004803 9 184 0.0 0.0 0.00 0.00 0.00 50 1011.4
20260504004303 10 184 0.0 0.0 0.00 0.00 0.00 52 1011.4
20260504003803 10 184 0.0 0.0 0.00 0.00 0.00 52 1011.4
20260504003304 10 168 0.0 0.0 0.00 0.00 0.00 46 1011.4
20260504002804 11 165 0.0 3.2 0.00 0.00 0.00 44 1011.4
20260504002304 11 165 0.0 3.2 0.00 0.00 0.00 42 1011.3
20260504001803 11 184 0.0 3.2 0.00 0.00 0.00 42 1011.2
20260504001303 11 161 0.0 3.2 0.00 0.00 0.00 41 1011.3
20260504000303 11 200 1.6 8.0 0.00 0.00 0.00 41 1011.2
20260503235804 11 190 3.2 8.0 0.00 0.00 0.00 41 1011.1
20260503235304 11 233 1.6 8.0 0.00 0.00 0.00 40 1011.1
20260503234804 12 117 0.0 4.8 0.00 0.00 0.00 39 1011.1
20260503234303 12 157 0.0 16.1 0.00 0.00 0.00 39 1011.1
20260503233303 12 210 4.8 16.1 0.00 0.00 0.00 39 1010.9
20260503232804 12 243 3.2 16.1 0.00 0.00 0.00 39 1010.8
20260503232305 12 242 4.8 14.5 0.00 0.00 0.00 38 1010.8
20260503231803 12 226 3.2 16.1 0.00 0.00 0.00 39 1010.8
20260503231304 12 236 8.0 16.1 0.00 0.00 0.00 40 1010.8
20260503230803 12 223 11.3 20.9 0.00 0.00 0.00 39 1010.8
20260503230304 13 239 3.2 20.9 0.00 0.00 0.00 37 1010.8
20260503225804 13 256 8.0 20.9 0.00 0.00 0.00 38 1010.8
20260503225304 12 235 4.8 19.3 0.00 0.00 0.00 39 1010.9
20260503224803 12 195 8.0 22.5 0.00 0.00 0.00 39 1011.0
20260503224303 13 258 11.3 22.5 0.00 0.00 0.00 38 1010.9
20260503223804 13 198 6.4 19.3 0.00 0.00 0.00 37 1010.9
20260503223304 13 202 8.0 20.9 0.00 0.00 0.00 38 1010.8
20260503222803 13 208 6.4 20.9 0.00 0.00 0.00 37 1010.7
20260503221804 13 254 8.0 20.9 0.00 0.00 0.00 39 1010.6
20260503221304 13 264 9.7 20.9 0.00 0.00 0.00 39 1010.6
20260503220804 12 193 4.8 19.3 0.00 0.00 0.00 37 1010.6
20260503220303 13 273 11.3 19.3 0.00 0.00 0.00 37 1010.6
20260503215804 13 268 4.8 22.5 0.00 0.00 0.00 38 1010.7
20260503215304 12 270 6.4 22.5 0.00 0.00 0.00 36 1010.6
20260503214803 12 189 4.8 22.5 0.00 0.00 0.00 36 1010.6
20260503214304 12 264 11.3 22.5 0.00 0.00 0.00 37 1010.5
20260503213303 12 216 12.9 25.7 0.00 0.00 0.00 35 1010.4
20260503212803 12 225 11.3 19.3 0.00 0.00 0.00 37 1010.4
20260503212305 12 185 9.7 22.5 0.00 0.00 0.00 38 1010.3
20260503211804 12 241 11.3 22.5 0.00 0.00 0.00 35 1010.3
20260503211303 12 289 9.7 19.3 0.00 0.00 0.00 36 1010.3
20260503210803 12 258 9.7 19.3 0.00 0.00 0.00 35 1010.4
20260503205304 12 192 8.0 19.3 0.00 0.00 0.00 35 1010.4
20260503204803 12 205 9.7 19.3 0.00 0.00 0.00 37 1010.2
20260503203804 12 216 8.0 29.0 0.00 0.00 0.00 34 1010.2
20260503203303 12 234 9.7 29.0 0.00 0.00 0.00 34 1010.2
20260503202803 12 209 11.3 27.4 0.00 0.00 0.00 36 1010.2
20260503202304 12 247 8.0 27.4 0.00 0.00 0.00 36 1010.3
20260503201803 12 233 14.5 29.0 0.00 0.00 0.00 35 1010.3
20260503200803 12 241 6.4 25.7 0.00 0.00 0.00 33 1010.3
20260503200304 12 261 12.9 25.7 0.00 0.00 0.00 36 1010.4
20260503195304 12 174 6.4 29.0 0.00 0.00 0.00 36 1010.4
20260503194803 12 278 9.7 29.0 0.00 0.00 0.00 34 1010.4
20260503194304 12 321 9.7 20.9 0.00 0.00 0.00 37 1010.6
20260503193804 12 233 8.0 22.5 0.00 0.00 0.00 34 1010.6
20260503193304 12 205 9.7 27.4 0.00 0.00 0.00 32 1010.7
20260503192804 12 257 12.9 27.4 0.00 0.00 0.00 34 1010.7
20260503192305 12 290 9.7 29.0 0.00 0.00 0.00 37 1010.7
20260503191803 12 311 16.1 29.0 0.00 0.00 0.00 36 1010.9
20260503191303 12 183 4.8 27.4 0.00 0.00 0.00 36 1010.9
20260503190803 11 208 11.3 32.2 0.00 0.00 0.00 36 1010.9
20260503190304 11 292 14.5 32.2 0.00 0.00 0.00 37 1011.1
20260503185804 11 230 16.1 27.4 0.00 0.00 0.00 36 1011.2
20260503185305 11 291 11.3 25.7 0.00 0.00 0.00 37 1011.2
20260503184804 11 247 9.7 25.7 0.00 0.00 0.00 37 1011.3
20260503184304 11 280 14.5 24.1 0.00 0.00 0.00 36 1011.4
20260503183804 11 290 12.9 24.1 0.00 0.00 0.00 36 1011.5
20260503183304 11 261 11.3 24.1 0.00 0.00 0.00 38 1011.6
20260503182803 10 305 9.7 24.1 0.00 0.00 0.00 39 1011.7
20260503182305 10 244 14.5 24.1 0.00 0.00 0.00 42 1011.8
20260503181303 10 239 12.9 29.0 0.00 0.00 0.00 39 1011.9
20260503180803 10 246 16.1 29.0 0.00 0.00 0.00 38 1011.8
20260503180304 10 318 14.5 29.0 0.00 0.00 0.00 38 1011.9
20260503175804 10 255 11.3 29.0 0.00 0.00 0.00 40 1012.1
20260503175305 10 234 14.5 29.0 0.00 0.00 0.00 40 1012.2
20260503174804 9 268 8.0 20.9 0.00 0.00 0.00 40 1012.1
20260503174304 10 227 12.9 25.7 0.00 0.00 0.00 41 1012.2
20260503173804 10 228 12.9 29.0 0.00 0.00 0.00 41 1012.3
20260503173303 9 251 12.9 29.0 0.00 0.00 0.00 42 1012.4
20260503172802 9 242 12.9 27.4 0.00 0.00 0.00 42 1012.2
20260503172305 9 272 12.9 27.4 0.00 0.00 0.00 41 1012.3
20260503171302 9 250 14.5 29.0 0.00 0.00 0.00 42 1012.4
20260503170803 9 251 14.5 33.8 0.00 0.00 0.00 41 1012.4
20260503170302 9 293 14.5 33.8 0.00 0.00 0.00 41 1012.5
20260503150803 7 321 16.1 33.8 0.00 0.00 0.00 43 1012.9
20260503150303 7 305 8.0 24.1 0.00 0.00 0.00 46 1012.9
20260503140303 6 278 12.9 25.7 0.00 0.00 0.00 54 1013.2
20260503131302 5 327 9.7 27.4 0.00 0.00 0.00 66 1013.4
20260503130803 4 249 9.7 27.4 0.00 0.00 0.00 67 1013.4
20260503130302 4 244 11.3 27.4 0.00 0.00 0.00 67 1013.4